Volver al catálogo

CZ-6A DEB

ActivoSSO
NORAD 56623·DEBRIS·🇨🇳 China

Lanzado Nov 11, 2022 desde Taiyuan Satellite Launch Center

Loading…

Próximos Pases (próximas 24 horas)

TLE

ActualizadoSource: Space-Track

Época: Sep 13, 2026, 03:36 UTC

1 56623U 22151AEX 26256.15013141  .00000954  00000-0  64958-3 0  9993
2 56623  98.9046 231.0356 0102572 148.9313 211.7972 13.99775108173545

Sigue CZ-6A DEB en tiempo real con AllMySat

Download on the App Store